Year,Month,Day,Hour,Minute,Value (Times are PST for temperature in C)
2006,08,22,00,00,16.40
2006,08,22,00,01,16.40
2006,08,22,00,02,16.40
2006,08,22,00,03,16.40
2006,08,22,00,04,16.40
2006,08,22,00,05,16.40
2006,08,22,00,06,16.40
2006,08,22,00,07,16.40
2006,08,22,00,08,16.40
2006,08,22,00,09,16.40
2006,08,22,00,10,16.40
2006,08,22,00,11,16.40
2006,08,22,00,12,16.40
2006,08,22,00,13,16.40
2006,08,22,00,14,16.30
2006,08,22,00,15,16.30
2006,08,22,00,16,16.30
2006,08,22,00,17,16.30
2006,08,22,00,18,16.30
2006,08,22,00,19,16.30
2006,08,22,00,20,16.30
2006,08,22,00,21,16.30
2006,08,22,00,22,16.30
2006,08,22,00,23,16.30
2006,08,22,00,24,16.30
2006,08,22,00,25,16.30
2006,08,22,00,26,16.30
2006,08,22,00,27,16.20
2006,08,22,00,28,16.20
2006,08,22,00,29,16.20
2006,08,22,00,30,16.20
2006,08,22,00,31,16.10
2006,08,22,00,32,16.10
2006,08,22,00,33,16.10
2006,08,22,00,34,16.10
2006,08,22,00,35,16.00
2006,08,22,00,36,16.00
2006,08,22,00,37,16.00
2006,08,22,00,38,15.90
2006,08,22,00,39,15.90
2006,08,22,00,40,15.80
2006,08,22,00,41,15.80
2006,08,22,00,42,15.80
2006,08,22,00,43,15.70
2006,08,22,00,44,15.70
2006,08,22,00,45,15.70
2006,08,22,00,46,15.60
2006,08,22,00,47,15.60
2006,08,22,00,48,15.60
2006,08,22,00,49,15.60
2006,08,22,00,50,15.60
2006,08,22,00,51,15.60
2006,08,22,00,52,15.50
2006,08,22,00,53,15.50
2006,08,22,00,54,15.50
2006,08,22,00,55,15.40
2006,08,22,00,56,15.40
2006,08,22,00,57,15.40
2006,08,22,00,58,15.40
2006,08,22,00,59,15.30
2006,08,22,01,00,15.30
2006,08,22,01,01,15.30
2006,08,22,01,02,15.30
2006,08,22,01,03,15.30
2006,08,22,01,04,15.20
2006,08,22,01,05,15.20
2006,08,22,01,06,15.20
2006,08,22,01,07,15.10
2006,08,22,01,08,15.10
2006,08,22,01,09,15.00
2006,08,22,01,10,15.00
2006,08,22,01,11,15.00
2006,08,22,01,12,15.00
2006,08,22,01,13,15.00
2006,08,22,01,14,15.00
2006,08,22,01,15,15.00
2006,08,22,01,16,15.00
2006,08,22,01,17,15.00
2006,08,22,01,18,15.00
2006,08,22,01,19,15.00
2006,08,22,01,20,15.00
2006,08,22,01,21,15.00
2006,08,22,01,22,15.00
2006,08,22,01,23,15.00
2006,08,22,01,24,15.00
2006,08,22,01,25,15.00
2006,08,22,01,26,15.00
2006,08,22,01,27,14.90
2006,08,22,01,28,14.90
2006,08,22,01,29,14.90
2006,08,22,01,30,14.90
2006,08,22,01,31,14.90
2006,08,22,01,32,14.90
2006,08,22,01,33,14.90
2006,08,22,01,34,14.90
2006,08,22,01,35,14.90
2006,08,22,01,36,14.90
2006,08,22,01,37,14.90
2006,08,22,01,38,14.90
2006,08,22,01,39,14.80
2006,08,22,01,40,14.80
2006,08,22,01,41,14.80
2006,08,22,01,42,14.80
2006,08,22,01,43,14.80
2006,08,22,01,44,14.80
2006,08,22,01,45,14.80
2006,08,22,01,46,14.80
2006,08,22,01,47,14.80
2006,08,22,01,48,14.80
2006,08,22,01,49,14.70
2006,08,22,01,50,14.70
2006,08,22,01,51,14.70
2006,08,22,01,52,14.70
2006,08,22,01,53,14.70
2006,08,22,01,54,14.60
2006,08,22,01,55,14.60
2006,08,22,01,56,14.60
2006,08,22,01,57,14.60
2006,08,22,01,58,14.60
2006,08,22,01,59,14.50
2006,08,22,02,00,14.50
2006,08,22,02,01,14.50
2006,08,22,02,02,14.40
2006,08,22,02,03,14.40
2006,08,22,02,04,14.40
2006,08,22,02,05,14.40
2006,08,22,02,06,14.40
2006,08,22,02,07,14.40
2006,08,22,02,08,14.40
2006,08,22,02,09,14.30
2006,08,22,02,10,14.30
2006,08,22,02,11,14.30
2006,08,22,02,12,14.30
2006,08,22,02,13,14.30
2006,08,22,02,14,14.30
2006,08,22,02,15,14.30
2006,08,22,02,16,14.30
2006,08,22,02,17,14.30
2006,08,22,02,18,14.30
2006,08,22,02,19,14.30
2006,08,22,02,20,14.30
2006,08,22,02,21,14.30
2006,08,22,02,22,14.30
2006,08,22,02,23,14.30
2006,08,22,02,24,14.30
2006,08,22,02,25,14.40
2006,08,22,02,26,14.40
2006,08,22,02,27,14.40
2006,08,22,02,28,14.40
2006,08,22,02,29,14.40
2006,08,22,02,30,14.40
2006,08,22,02,31,14.40
2006,08,22,02,32,14.40
2006,08,22,02,33,14.40
2006,08,22,02,34,14.40
2006,08,22,02,35,14.40
2006,08,22,02,36,14.40
2006,08,22,02,37,14.40
2006,08,22,02,38,14.40
2006,08,22,02,39,14.40
2006,08,22,02,40,14.40
2006,08,22,02,41,14.40
2006,08,22,02,42,14.50
2006,08,22,02,43,14.50
2006,08,22,02,44,14.60
2006,08,22,02,45,14.60
2006,08,22,02,46,14.60
2006,08,22,02,47,14.60
2006,08,22,02,48,14.60
2006,08,22,02,49,14.50
2006,08,22,02,50,14.50
2006,08,22,02,51,14.40
2006,08,22,02,52,14.40
2006,08,22,02,53,14.40
2006,08,22,02,54,14.40
2006,08,22,02,55,14.40
2006,08,22,02,56,14.30
2006,08,22,02,57,14.30
2006,08,22,02,58,14.30
2006,08,22,02,59,14.30
2006,08,22,03,00,14.20
2006,08,22,03,01,14.20
2006,08,22,03,02,14.20
2006,08,22,03,03,14.20
2006,08,22,03,04,14.20
2006,08,22,03,05,14.20
2006,08,22,03,06,14.20
2006,08,22,03,07,14.20
2006,08,22,03,08,14.10
2006,08,22,03,09,14.10
2006,08,22,03,10,14.10
2006,08,22,03,11,14.10
2006,08,22,03,12,14.00
2006,08,22,03,13,14.00
2006,08,22,03,14,13.90
2006,08,22,03,15,13.90
2006,08,22,03,16,13.90
2006,08,22,03,17,13.90
2006,08,22,03,18,13.80
2006,08,22,03,19,13.80
2006,08,22,03,20,13.80
2006,08,22,03,21,13.80
2006,08,22,03,22,13.70
2006,08,22,03,23,13.70
2006,08,22,03,24,13.70
2006,08,22,03,25,13.60
2006,08,22,03,26,13.60
2006,08,22,03,27,13.60
2006,08,22,03,28,13.50
2006,08,22,03,29,13.50
2006,08,22,03,30,13.40
2006,08,22,03,31,13.40
2006,08,22,03,32,13.40
2006,08,22,03,33,13.40
2006,08,22,03,34,13.30
2006,08,22,03,35,13.30
2006,08,22,03,36,13.30
2006,08,22,03,37,13.30
2006,08,22,03,38,13.30
2006,08,22,03,39,13.30
2006,08,22,03,40,13.30
2006,08,22,03,41,13.30
2006,08,22,03,42,13.20
2006,08,22,03,43,13.20
2006,08,22,03,44,13.20
2006,08,22,03,45,13.20
2006,08,22,03,46,13.20
2006,08,22,03,47,13.20
2006,08,22,03,48,13.20
2006,08,22,03,49,13.20
2006,08,22,03,50,13.20
2006,08,22,03,51,13.20
2006,08,22,03,52,13.10
2006,08,22,03,53,13.10
2006,08,22,03,54,13.10
2006,08,22,03,55,13.00
2006,08,22,03,56,13.00
2006,08,22,03,57,13.00
2006,08,22,03,58,12.90
2006,08,22,03,59,12.90
2006,08,22,04,00,12.90
2006,08,22,04,01,12.90
2006,08,22,04,02,12.90
2006,08,22,04,03,13.00
2006,08,22,04,04,13.00
2006,08,22,04,05,13.00
2006,08,22,04,06,13.10
2006,08,22,04,07,13.10
2006,08,22,04,08,13.10
2006,08,22,04,09,13.10
2006,08,22,04,10,13.10
2006,08,22,04,11,13.10
2006,08,22,04,12,13.10
2006,08,22,04,13,13.10
2006,08,22,04,14,13.10
2006,08,22,04,15,13.10
2006,08,22,04,16,13.10
2006,08,22,04,17,13.10
2006,08,22,04,18,13.10
2006,08,22,04,19,13.10
2006,08,22,04,20,13.10
2006,08,22,04,21,13.10
2006,08,22,04,22,13.10
2006,08,22,04,23,13.10
2006,08,22,04,24,13.00
2006,08,22,04,25,13.00
2006,08,22,04,26,13.00
2006,08,22,04,27,12.90
2006,08,22,04,28,12.90
2006,08,22,04,29,12.80
2006,08,22,04,30,12.80
2006,08,22,04,31,12.80
2006,08,22,04,32,12.80
2006,08,22,04,33,12.80
2006,08,22,04,34,12.80
2006,08,22,04,35,12.70
2006,08,22,04,36,12.70
2006,08,22,04,37,12.70
2006,08,22,04,38,12.70
2006,08,22,04,39,12.70
2006,08,22,04,40,12.70
2006,08,22,04,41,12.70
2006,08,22,04,42,12.70
2006,08,22,04,43,12.80
2006,08,22,04,44,12.80
2006,08,22,04,45,12.80
2006,08,22,04,46,12.80
2006,08,22,04,47,12.80
2006,08,22,04,48,12.80
2006,08,22,04,49,12.80
2006,08,22,04,50,12.80
2006,08,22,04,51,12.80
2006,08,22,04,52,12.70
2006,08,22,04,53,12.70
2006,08,22,04,54,12.60
2006,08,22,04,55,12.60
2006,08,22,04,56,12.50
2006,08,22,04,57,12.50
2006,08,22,04,58,12.50
2006,08,22,04,59,12.40
2006,08,22,05,00,12.40
2006,08,22,05,01,12.40
2006,08,22,05,02,12.40
2006,08,22,05,03,12.40
2006,08,22,05,04,12.30
2006,08,22,05,05,12.30
2006,08,22,05,06,12.30
2006,08,22,05,07,12.30
2006,08,22,05,08,12.30
2006,08,22,05,09,12.30
2006,08,22,05,10,12.30
2006,08,22,05,11,12.20
2006,08,22,05,12,12.20
2006,08,22,05,13,12.20
2006,08,22,05,14,12.20
2006,08,22,05,15,12.10
2006,08,22,05,16,12.10
2006,08,22,05,17,12.10
2006,08,22,05,18,12.10
2006,08,22,05,19,12.00
2006,08,22,05,20,12.00
2006,08,22,05,21,11.90
2006,08,22,05,22,11.90
2006,08,22,05,23,11.90
2006,08,22,05,24,11.80
2006,08,22,05,25,11.80
2006,08,22,05,26,11.80
2006,08,22,05,27,11.80
2006,08,22,05,28,11.80
2006,08,22,05,29,11.80
2006,08,22,05,30,11.80
2006,08,22,05,31,11.80
2006,08,22,05,32,11.80
2006,08,22,05,33,11.80
2006,08,22,05,34,11.80
2006,08,22,05,35,11.80
2006,08,22,05,36,11.80
2006,08,22,05,37,11.80
2006,08,22,05,38,11.80
2006,08,22,05,39,11.80
2006,08,22,05,40,11.80
2006,08,22,05,41,11.80
2006,08,22,05,42,11.80
2006,08,22,05,43,11.80
2006,08,22,05,44,11.80
2006,08,22,05,45,11.80
2006,08,22,05,46,11.80
2006,08,22,05,47,11.80
2006,08,22,05,48,11.80
2006,08,22,05,49,11.80
2006,08,22,05,50,11.80
2006,08,22,05,51,11.70
2006,08,22,05,52,11.70
2006,08,22,05,53,11.80
2006,08,22,05,54,11.80
2006,08,22,05,55,11.80
2006,08,22,05,56,11.80
2006,08,22,05,57,11.80
2006,08,22,05,58,11.80
2006,08,22,05,59,11.90
2006,08,22,06,00,11.90
2006,08,22,06,01,11.90
2006,08,22,06,02,12.00
2006,08,22,06,03,12.10
2006,08,22,06,04,12.10
2006,08,22,06,05,12.20
2006,08,22,06,06,12.20
2006,08,22,06,07,12.20
2006,08,22,06,08,12.30
2006,08,22,06,09,12.30
2006,08,22,06,10,12.30
2006,08,22,06,11,12.30
2006,08,22,06,12,12.40
2006,08,22,06,13,12.40
2006,08,22,06,14,12.40
2006,08,22,06,15,12.40
2006,08,22,06,16,12.40
2006,08,22,06,17,12.40
2006,08,22,06,18,12.40
2006,08,22,06,19,12.40
2006,08,22,06,20,12.40
2006,08,22,06,21,12.30
2006,08,22,06,22,12.30
2006,08,22,06,23,12.30
2006,08,22,06,24,12.30
2006,08,22,06,25,12.30
2006,08,22,06,26,12.30
2006,08,22,06,27,12.20
2006,08,22,06,28,12.20
2006,08,22,06,29,12.20
2006,08,22,06,30,12.20
2006,08,22,06,31,12.20
2006,08,22,06,32,12.10
2006,08,22,06,33,12.10
2006,08,22,06,34,12.10
2006,08,22,06,35,12.10
2006,08,22,06,36,12.10
2006,08,22,06,37,12.10
2006,08,22,06,38,12.10
2006,08,22,06,39,12.10
2006,08,22,06,40,12.20
2006,08,22,06,41,12.20
2006,08,22,06,42,12.20
2006,08,22,06,43,12.20
2006,08,22,06,44,12.10
2006,08,22,06,45,12.10
2006,08,22,06,46,12.10
2006,08,22,06,47,12.10
2006,08,22,06,48,12.10
2006,08,22,06,49,12.10
2006,08,22,06,50,12.10
2006,08,22,06,51,12.10
2006,08,22,06,52,12.10
2006,08,22,06,53,12.10
2006,08,22,06,54,12.00
2006,08,22,06,55,12.00
2006,08,22,06,56,12.00
2006,08,22,06,57,12.00
2006,08,22,06,58,11.90
2006,08,22,06,59,11.90
2006,08,22,07,00,11.90
2006,08,22,07,01,11.90
2006,08,22,07,02,11.90
2006,08,22,07,03,11.90
2006,08,22,07,04,11.90
2006,08,22,07,05,11.90
2006,08,22,07,06,11.90
2006,08,22,07,07,11.90
2006,08,22,07,08,11.90
2006,08,22,07,09,11.90
2006,08,22,07,10,11.90
2006,08,22,07,11,11.90
2006,08,22,07,12,12.00
2006,08,22,07,13,12.00
2006,08,22,07,14,12.00
2006,08,22,07,15,12.10
2006,08,22,07,16,12.10
2006,08,22,07,17,12.10
2006,08,22,07,18,12.20
2006,08,22,07,19,12.20
2006,08,22,07,20,12.20
2006,08,22,07,21,12.20
2006,08,22,07,22,12.20
2006,08,22,07,23,12.20
2006,08,22,07,24,12.20
2006,08,22,07,25,12.20
2006,08,22,07,26,12.20
2006,08,22,07,27,12.20
2006,08,22,07,28,12.20
2006,08,22,07,29,12.20
2006,08,22,07,30,12.20
2006,08,22,07,31,12.20
2006,08,22,07,32,12.30
2006,08,22,07,33,12.30
2006,08,22,07,34,12.30
2006,08,22,07,35,12.30
2006,08,22,07,36,12.40
2006,08,22,07,37,12.40
2006,08,22,07,38,12.50
2006,08,22,07,39,12.50
2006,08,22,07,40,12.60
2006,08,22,07,41,12.60
2006,08,22,07,42,12.60
2006,08,22,07,43,12.70
2006,08,22,07,44,12.70
2006,08,22,07,45,12.80
2006,08,22,07,46,12.80
2006,08,22,07,47,12.90
2006,08,22,07,48,12.90
2006,08,22,07,49,12.90
2006,08,22,07,50,12.90
2006,08,22,07,51,12.90
2006,08,22,07,52,13.00
2006,08,22,07,53,13.00
2006,08,22,07,54,13.10
2006,08,22,07,55,13.10
2006,08,22,07,56,13.20
2006,08,22,07,57,13.20
2006,08,22,07,58,13.30
2006,08,22,07,59,13.30
2006,08,22,08,00,13.40
2006,08,22,08,01,13.40
2006,08,22,08,02,13.40
2006,08,22,08,03,13.50
2006,08,22,08,04,13.50
2006,08,22,08,05,13.50
2006,08,22,08,06,13.60
2006,08,22,08,07,13.60
2006,08,22,08,08,13.70
2006,08,22,08,09,13.70
2006,08,22,08,10,13.80
2006,08,22,08,11,13.90
2006,08,22,08,12,14.00
2006,08,22,08,13,14.10
2006,08,22,08,14,14.20
2006,08,22,08,15,14.30
2006,08,22,08,16,14.40
2006,08,22,08,17,14.50
2006,08,22,08,18,14.50
2006,08,22,08,19,14.60
2006,08,22,08,20,14.70
2006,08,22,08,21,14.80
2006,08,22,08,22,14.90
2006,08,22,08,23,15.00
2006,08,22,08,24,15.00
2006,08,22,08,25,15.00
2006,08,22,08,26,15.00
2006,08,22,08,27,15.00
2006,08,22,08,28,15.00
2006,08,22,08,29,15.00
2006,08,22,08,30,15.00
2006,08,22,08,31,14.80
2006,08,22,08,32,14.60
2006,08,22,08,33,14.40
2006,08,22,08,34,14.30
2006,08,22,08,35,14.20
2006,08,22,08,36,14.10
2006,08,22,08,37,14.00
2006,08,22,08,38,13.90
2006,08,22,08,39,13.90
2006,08,22,08,40,13.80
2006,08,22,08,41,13.70
2006,08,22,08,42,13.70
2006,08,22,08,43,13.70
2006,08,22,08,44,13.70
2006,08,22,08,45,13.60
2006,08,22,08,46,13.60
2006,08,22,08,47,13.50
2006,08,22,08,48,13.40
2006,08,22,08,49,13.40
2006,08,22,08,50,13.30
2006,08,22,08,51,13.30
2006,08,22,08,52,13.20
2006,08,22,08,53,13.20
2006,08,22,08,54,13.30
2006,08,22,08,55,13.30
2006,08,22,08,56,13.30
2006,08,22,08,57,13.40
2006,08,22,08,58,13.40
2006,08,22,08,59,13.50
2006,08,22,09,00,13.40
2006,08,22,09,01,13.40
2006,08,22,09,02,13.20
2006,08,22,09,03,13.10
2006,08,22,09,04,13.00
2006,08,22,09,05,12.90
2006,08,22,09,06,12.80
2006,08,22,09,07,12.70
2006,08,22,09,08,12.60
2006,08,22,09,09,12.60
2006,08,22,09,10,12.50
2006,08,22,09,11,12.50
2006,08,22,09,12,12.40
2006,08,22,09,13,12.40
2006,08,22,09,14,12.40
2006,08,22,09,15,12.40
2006,08,22,09,16,12.40
2006,08,22,09,17,12.50
2006,08,22,09,18,12.50
2006,08,22,09,19,12.60
2006,08,22,09,20,12.60
2006,08,22,09,21,12.70
2006,08,22,09,22,12.70
2006,08,22,09,23,12.80
2006,08,22,09,24,12.90
2006,08,22,09,25,12.90
2006,08,22,09,26,12.80
2006,08,22,09,27,12.70
2006,08,22,09,28,12.70
2006,08,22,09,29,12.70
2006,08,22,09,30,12.80
2006,08,22,09,31,12.80
2006,08,22,09,32,12.80
2006,08,22,09,33,12.80
2006,08,22,09,34,12.70
2006,08,22,09,35,12.70
2006,08,22,09,36,12.70
2006,08,22,09,37,12.70
2006,08,22,09,38,12.70
2006,08,22,09,39,12.70
2006,08,22,09,40,12.80
2006,08,22,09,41,12.80
2006,08,22,09,42,12.80
2006,08,22,09,43,12.80
2006,08,22,09,44,12.80
2006,08,22,09,45,12.80
2006,08,22,09,46,12.80
2006,08,22,09,47,12.90
2006,08,22,09,48,12.90
2006,08,22,09,49,12.90
2006,08,22,09,50,12.90
2006,08,22,09,51,13.00
2006,08,22,09,52,13.00
2006,08,22,09,53,12.90
2006,08,22,09,54,12.80
2006,08,22,09,55,12.80
2006,08,22,09,56,12.80
2006,08,22,09,57,12.90
2006,08,22,09,58,12.90
2006,08,22,09,59,12.90
2006,08,22,10,00,12.90
2006,08,22,10,01,12.80
2006,08,22,10,02,12.80
2006,08,22,10,03,12.80
2006,08,22,10,04,12.80
2006,08,22,10,05,12.70
2006,08,22,10,06,12.70
2006,08,22,10,07,12.80
2006,08,22,10,08,12.80
2006,08,22,10,09,13.00
2006,08,22,10,10,13.10
2006,08,22,10,11,13.10
2006,08,22,10,12,13.10
2006,08,22,10,13,13.10
2006,08,22,10,14,13.10
2006,08,22,10,15,13.10
2006,08,22,10,16,13.20
2006,08,22,10,17,13.30
2006,08,22,10,18,13.20
2006,08,22,10,19,13.20
2006,08,22,10,20,13.20
2006,08,22,10,21,13.20
2006,08,22,10,22,13.10
2006,08,22,10,23,13.10
2006,08,22,10,24,13.10
2006,08,22,10,25,13.10
2006,08,22,10,26,13.20
2006,08,22,10,27,13.20
2006,08,22,10,28,13.20
2006,08,22,10,29,13.10
2006,08,22,10,30,13.10
2006,08,22,10,31,13.10
2006,08,22,10,32,13.20
2006,08,22,10,33,13.20
2006,08,22,10,34,13.20
2006,08,22,10,35,13.20
2006,08,22,10,36,13.20
2006,08,22,10,37,13.20
2006,08,22,10,38,13.20
2006,08,22,10,39,13.20
2006,08,22,10,40,13.20
2006,08,22,10,41,13.30
2006,08,22,10,42,13.30
2006,08,22,10,43,13.30
2006,08,22,10,44,13.40
2006,08,22,10,45,13.50
2006,08,22,10,46,13.60
2006,08,22,10,47,13.70
2006,08,22,10,48,13.70
2006,08,22,10,49,13.70
2006,08,22,10,50,13.80
2006,08,22,10,51,13.70
2006,08,22,10,52,13.70
2006,08,22,10,53,13.60
2006,08,22,10,54,13.60
2006,08,22,10,55,13.70
2006,08,22,10,56,13.70
2006,08,22,10,57,13.80
2006,08,22,10,58,13.90
2006,08,22,10,59,13.90
2006,08,22,11,00,13.90
2006,08,22,11,01,13.90
2006,08,22,11,02,13.90
2006,08,22,11,03,14.00
2006,08,22,11,04,14.00
2006,08,22,11,05,14.00
2006,08,22,11,06,14.00
2006,08,22,11,07,14.10
2006,08,22,11,08,14.20
2006,08,22,11,09,14.20
2006,08,22,11,10,14.20
2006,08,22,11,11,14.20
2006,08,22,11,12,14.30
2006,08,22,11,13,14.40
2006,08,22,11,14,14.40
2006,08,22,11,15,14.50
2006,08,22,11,16,14.60
2006,08,22,11,17,14.60
2006,08,22,11,18,14.60
2006,08,22,11,19,14.60
2006,08,22,11,20,14.60
2006,08,22,11,21,14.50
2006,08,22,11,22,14.50
2006,08,22,11,23,14.60
2006,08,22,11,24,14.50
2006,08,22,11,25,14.50
2006,08,22,11,26,14.40
2006,08,22,11,27,14.40
2006,08,22,11,28,14.40
2006,08,22,11,29,14.50
2006,08,22,11,30,14.60
2006,08,22,11,31,14.60
2006,08,22,11,32,14.80
2006,08,22,11,33,14.90
2006,08,22,11,34,15.00
2006,08,22,11,35,15.00
2006,08,22,11,36,15.00
2006,08,22,11,37,15.00
2006,08,22,11,38,15.00
2006,08,22,11,39,15.00
2006,08,22,11,40,14.90
2006,08,22,11,41,14.80
2006,08,22,11,42,14.90
2006,08,22,11,43,15.00
2006,08,22,11,44,15.00
2006,08,22,11,45,14.90
2006,08,22,11,46,14.90
2006,08,22,11,47,14.90
2006,08,22,11,48,15.00
2006,08,22,11,49,15.00
2006,08,22,11,50,15.00
2006,08,22,11,51,15.00
2006,08,22,11,52,15.00
2006,08,22,11,53,15.00
2006,08,22,11,54,15.00
2006,08,22,11,55,15.00
2006,08,22,11,56,15.00
2006,08,22,11,57,15.00
2006,08,22,11,58,15.00
2006,08,22,11,59,15.00
2006,08,22,12,00,15.00
2006,08,22,12,01,15.00
2006,08,22,12,02,14.80
2006,08,22,12,03,14.80
2006,08,22,12,04,14.80
2006,08,22,12,05,14.80
2006,08,22,12,06,14.90
2006,08,22,12,07,15.00
2006,08,22,12,08,15.00
2006,08,22,12,09,15.00
2006,08,22,12,10,15.00
2006,08,22,12,11,15.10
2006,08,22,12,12,15.20
2006,08,22,12,13,15.30
2006,08,22,12,14,15.10
2006,08,22,12,15,15.00
2006,08,22,12,16,15.00
2006,08,22,12,17,15.00
2006,08,22,12,18,15.00
2006,08,22,12,19,15.10
2006,08,22,12,20,15.20
2006,08,22,12,21,15.30
2006,08,22,12,22,15.40
2006,08,22,12,23,15.50
2006,08,22,12,24,15.60
2006,08,22,12,25,15.60
2006,08,22,12,26,15.70
2006,08,22,12,27,15.60
2006,08,22,12,28,15.60
2006,08,22,12,29,15.70
2006,08,22,12,30,15.80
2006,08,22,12,31,15.80
2006,08,22,12,32,15.80
2006,08,22,12,33,15.80
2006,08,22,12,34,15.70
2006,08,22,12,35,15.50
2006,08,22,12,36,15.40
2006,08,22,12,37,15.40
2006,08,22,12,38,15.50
2006,08,22,12,39,15.50
2006,08,22,12,40,15.60
2006,08,22,12,41,15.50
2006,08,22,12,42,15.40
2006,08,22,12,43,15.50
2006,08,22,12,44,15.60
2006,08,22,12,45,15.70
2006,08,22,12,46,15.80
2006,08,22,12,47,15.70
2006,08,22,12,48,15.70
2006,08,22,12,49,15.60
2006,08,22,12,50,15.60
2006,08,22,12,51,15.70
2006,08,22,12,52,15.60
2006,08,22,12,53,15.60
2006,08,22,12,54,15.60
2006,08,22,12,55,15.60
2006,08,22,12,56,15.70
2006,08,22,12,57,15.60
2006,08,22,12,58,15.60
2006,08,22,12,59,15.60
2006,08,22,13,00,15.50
2006,08,22,13,01,15.50
2006,08,22,13,02,15.50
2006,08,22,13,03,15.50
2006,08,22,13,04,15.50
2006,08,22,13,05,15.50
2006,08,22,13,06,15.40
2006,08,22,13,07,15.30
2006,08,22,13,08,15.30
2006,08,22,13,09,15.30
2006,08,22,13,10,15.30
2006,08,22,13,11,15.20
2006,08,22,13,12,15.30
2006,08,22,13,13,15.30
2006,08,22,13,14,15.30
2006,08,22,13,15,15.30
2006,08,22,13,16,15.40
2006,08,22,13,17,15.50
2006,08,22,13,18,15.70
2006,08,22,13,19,15.70
2006,08,22,13,20,15.60
2006,08,22,13,21,15.50
2006,08,22,13,22,15.50
2006,08,22,13,23,15.50
2006,08,22,13,24,15.50
2006,08,22,13,25,15.50
2006,08,22,13,26,15.70
2006,08,22,13,27,15.70
2006,08,22,13,28,15.80
2006,08,22,13,29,15.90
2006,08,22,13,30,15.90
2006,08,22,13,31,15.80
2006,08,22,13,32,15.80
2006,08,22,13,33,15.80
2006,08,22,13,34,15.80
2006,08,22,13,35,15.90
2006,08,22,13,36,15.90
2006,08,22,13,37,15.90
2006,08,22,13,38,15.90
2006,08,22,13,39,15.80
2006,08,22,13,40,15.80
2006,08,22,13,41,15.80
2006,08,22,13,42,15.80
2006,08,22,13,43,15.80
2006,08,22,13,44,15.80
2006,08,22,13,45,15.70
2006,08,22,13,46,15.70
2006,08,22,13,47,15.70
2006,08,22,13,48,15.80
2006,08,22,13,49,15.80
2006,08,22,13,50,15.70
2006,08,22,13,51,15.70
2006,08,22,13,52,15.70
2006,08,22,13,53,15.60
2006,08,22,13,54,15.60
2006,08,22,13,55,15.70
2006,08,22,13,56,15.80
2006,08,22,13,57,15.80
2006,08,22,13,58,15.90
2006,08,22,13,59,16.00
2006,08,22,14,00,16.00
2006,08,22,14,01,15.90
2006,08,22,14,02,15.90
2006,08,22,14,03,15.70
2006,08,22,14,04,15.70
2006,08,22,14,05,15.80
2006,08,22,14,06,15.90
2006,08,22,14,07,16.00
2006,08,22,14,08,16.10
2006,08,22,14,09,16.20
2006,08,22,14,10,16.40
2006,08,22,14,11,16.50
2006,08,22,14,12,16.50
2006,08,22,14,13,16.40
2006,08,22,14,14,16.40
2006,08,22,14,15,16.40
2006,08,22,14,16,16.30
2006,08,22,14,17,16.20
2006,08,22,14,18,16.10
2006,08,22,14,19,16.10
2006,08,22,14,20,16.10
2006,08,22,14,21,16.10
2006,08,22,14,22,16.20
2006,08,22,14,23,16.20
2006,08,22,14,24,16.20
2006,08,22,14,25,16.30
2006,08,22,14,26,16.30
2006,08,22,14,27,16.30
2006,08,22,14,28,16.20
2006,08,22,14,29,16.20
2006,08,22,14,30,16.20
2006,08,22,14,31,16.30
2006,08,22,14,32,16.40
2006,08,22,14,33,16.50
2006,08,22,14,34,16.60
2006,08,22,14,35,16.70
2006,08,22,14,36,16.70
2006,08,22,14,37,16.60
2006,08,22,14,38,16.60
2006,08,22,14,39,16.50
2006,08,22,14,40,16.40
2006,08,22,14,41,16.30
2006,08,22,14,42,16.20
2006,08,22,14,43,16.20
2006,08,22,14,44,16.20
2006,08,22,14,45,16.30
2006,08,22,14,46,16.20
2006,08,22,14,47,16.20
2006,08,22,14,48,16.20
2006,08,22,14,49,16.20
2006,08,22,14,50,16.20
2006,08,22,14,51,16.10
2006,08,22,14,52,16.10
2006,08,22,14,53,16.10
2006,08,22,14,54,16.10
2006,08,22,14,55,16.30
2006,08,22,14,56,16.30
2006,08,22,14,57,16.40
2006,08,22,14,58,16.50
2006,08,22,14,59,16.40
2006,08,22,15,00,16.40
2006,08,22,15,01,16.40
2006,08,22,15,02,16.50
2006,08,22,15,03,16.50
2006,08,22,15,04,16.50
2006,08,22,15,05,16.60
2006,08,22,15,06,16.60
2006,08,22,15,07,16.50
2006,08,22,15,08,16.50
2006,08,22,15,09,16.50
2006,08,22,15,10,16.60
2006,08,22,15,11,16.70
2006,08,22,15,12,16.70
2006,08,22,15,13,16.90
2006,08,22,15,14,16.90
2006,08,22,15,15,16.90
2006,08,22,15,16,17.00
2006,08,22,15,17,17.00
2006,08,22,15,18,16.90
2006,08,22,15,19,16.90
2006,08,22,15,20,16.90
2006,08,22,15,21,16.90
2006,08,22,15,22,16.80
2006,08,22,15,23,16.70
2006,08,22,15,24,16.60
2006,08,22,15,25,16.60
2006,08,22,15,26,16.60
2006,08,22,15,27,16.50
2006,08,22,15,28,16.40
2006,08,22,15,29,16.40
2006,08,22,15,30,16.30
2006,08,22,15,31,16.20
2006,08,22,15,32,16.10
2006,08,22,15,33,16.10
2006,08,22,15,34,16.10
2006,08,22,15,35,16.00
2006,08,22,15,36,16.00
2006,08,22,15,37,16.00
2006,08,22,15,38,15.90
2006,08,22,15,39,15.90
2006,08,22,15,40,15.80
2006,08,22,15,41,15.80
2006,08,22,15,42,15.80
2006,08,22,15,43,15.90
2006,08,22,15,44,16.00
2006,08,22,15,45,16.00
2006,08,22,15,46,16.10
2006,08,22,15,47,16.20
2006,08,22,15,48,16.20
2006,08,22,15,49,16.40
2006,08,22,15,50,16.40
2006,08,22,15,51,16.40
2006,08,22,15,52,16.40
2006,08,22,15,53,16.40
2006,08,22,15,54,16.30
2006,08,22,15,55,16.30
2006,08,22,15,56,16.30
2006,08,22,15,57,16.30
2006,08,22,15,58,16.20
2006,08,22,15,59,16.20
2006,08,22,16,00,16.20
2006,08,22,16,01,16.20
2006,08,22,16,02,16.00
2006,08,22,16,03,16.00
2006,08,22,16,04,15.90
2006,08,22,16,05,15.90
2006,08,22,16,06,16.00
2006,08,22,16,07,16.00
2006,08,22,16,08,16.00
2006,08,22,16,09,16.00
2006,08,22,16,10,16.10
2006,08,22,16,11,16.20
2006,08,22,16,12,16.30
2006,08,22,16,13,16.30
2006,08,22,16,14,16.20
2006,08,22,16,15,16.10
2006,08,22,16,16,16.00
2006,08,22,16,17,15.90
2006,08,22,16,18,15.80
2006,08,22,16,19,15.70
2006,08,22,16,20,15.70
2006,08,22,16,21,15.70
2006,08,22,16,22,15.80
2006,08,22,16,23,15.80
2006,08,22,16,24,15.90
2006,08,22,16,25,15.90
2006,08,22,16,26,15.90
2006,08,22,16,27,15.90
2006,08,22,16,28,15.90
2006,08,22,16,29,16.00
2006,08,22,16,30,16.00
2006,08,22,16,31,16.00
2006,08,22,16,32,15.90
2006,08,22,16,33,15.90
2006,08,22,16,34,15.80
2006,08,22,16,35,15.80
2006,08,22,16,36,15.90
2006,08,22,16,37,15.90
2006,08,22,16,38,16.00
2006,08,22,16,39,16.10
2006,08,22,16,40,16.10
2006,08,22,16,41,16.10
2006,08,22,16,42,16.10
2006,08,22,16,43,16.00
2006,08,22,16,44,16.00
2006,08,22,16,45,15.90
2006,08,22,16,46,15.90
2006,08,22,16,47,15.90
2006,08,22,16,48,15.90
2006,08,22,16,49,15.90
2006,08,22,16,50,16.00
2006,08,22,16,51,16.00
2006,08,22,16,52,16.10
2006,08,22,16,53,16.00
2006,08,22,16,54,15.90
2006,08,22,16,55,15.90
2006,08,22,16,56,15.80
2006,08,22,16,57,15.90
2006,08,22,16,58,15.90
2006,08,22,16,59,16.00
2006,08,22,17,00,16.00
2006,08,22,17,01,16.10
2006,08,22,17,02,16.00
2006,08,22,17,03,15.90
2006,08,22,17,04,16.00
2006,08,22,17,05,16.00
2006,08,22,17,06,16.10
2006,08,22,17,07,16.10
2006,08,22,17,08,16.20
2006,08,22,17,09,16.30
2006,08,22,17,10,16.50
2006,08,22,17,11,16.60
2006,08,22,17,12,16.70
2006,08,22,17,13,16.70
2006,08,22,17,14,16.80
2006,08,22,17,15,16.80
2006,08,22,17,16,16.80
2006,08,22,17,17,16.80
2006,08,22,17,18,16.90
2006,08,22,17,19,16.90